Weather History for KAKR - August, 2014

Change the Weather History Date:

Friday, August 1, 2014

  Actual Average (KCAK) Record (KCAK)
Temperature  
Mean Temperature 70 °F 72 °F  
Max Temperature 82 °F 82 °F 96 °F (1933)
Min Temperature 59 °F 62 °F 48 °F (1992)
Degree Days  
Heating Degree Days 0 0  
Month to date heating degree days 0  
Since 1 June heating degree days 55  
Since 1 July heating degree days 6  
Cooling Degree Days 6 7  
Month to date cooling degree days 7  
Year to date cooling degree days 406  
Since 1 June cooling degree days 364  
Growing Degree Days 20 (Base 50)    
Moisture  
Dew Point 59 °F    
Average Humidity 64    
Maximum Humidity 90    
Minimum Humidity 42    
Precipitation  
Precipitation 0.00 in 0.12 in 0.59 in (1979)
Month to date precipitation 0.12  
Year to date precipitation 23.76  
Snow  
Snow 0.00 in 0.00 in - ()
Month to date snowfall 0.0  
Since 1 June snowfall 0.0  
Since 1 July snowfall 0.0  
Snow Depth -    
Sea Level Pressure  
Sea Level Pressure 30.10 in    
Wind  
Wind Speed 2 mph (SSE)    
Max Wind Speed 8 mph    
Max Gust Speed -    
Visibility 9 miles    
Events Thunderstorm    
T = Trace of Precipitation, MM = Missing Value Source: NWS Daily Summary

Daily Weather History Graph

Daily Weather History Graph

Search for Another Location

Airport or City:

Trip Planner

Search our weather history database for the weather conditions in past years. The results will help you decide how hot, cold, wet, or windy it might be!

Date:

Astronomy

Aug. 01, 2014 Rise Set
Actual Time 6:21 AM EDT 8:42 PM EDT
Civil Twilight 5:50 AM EDT 9:12 PM EDT
Nautical Twilight 5:12 AM EDT 9:50 PM EDT
Astronomical Twilight 4:30 AM EDT 10:33 PM EDT
Moon 11:47 AM EDT (8/1) 11:22 PM EDT (8/1)
Length of Visible Light 15h 22m
Length of Day
14h 20m
Waxing Crescent, 27% of the Moon is Illuminated
Aug 1
Waxing Crescent
Aug 3
First Quarter
Aug 10
Full
Aug 17
Last Quarter
Aug 25
New

Hourly Weather History & Observations

Time (EDT) Temp. Heat Index Dew Point Humidity Pressure Visibility Wind Dir Wind Speed Gust Speed Precip Events Conditions
12:54 AM 63.0 °F - 57.0 °F 81% 30.10 in 10.0 mi Calm Calm - N/A   Clear
1:54 AM 62.1 °F - 57.9 °F 86% 30.09 in 10.0 mi Calm Calm - N/A   Clear
2:54 AM 63.0 °F - 57.0 °F 81% 30.08 in 10.0 mi Calm Calm - N/A   Clear
3:54 AM 60.8 °F - 55.4 °F 82% 30.11 in 10.0 mi Calm Calm - N/A   Clear
4:54 AM 61.0 °F - 55.9 °F 83% 30.09 in 9.0 mi Calm Calm - N/A   Clear
5:54 AM 59.0 °F - 55.9 °F 90% 30.10 in 6.0 mi Calm Calm - N/A   Clear
6:54 AM 60.1 °F - 57.0 °F 90% 30.11 in 5.0 mi Calm Calm - N/A   Clear
7:54 AM 64.9 °F - 60.1 °F 84% 30.13 in 6.0 mi Calm Calm - N/A   Haze
8:54 AM 69.1 °F - 62.1 °F 78% 30.14 in 8.0 mi South 3.5 mph - N/A   Clear
9:54 AM 73.9 °F - 63.0 °F 68% 30.13 in 10.0 mi South 5.8 mph - N/A   Clear
10:54 AM 77.0 °F - 62.1 °F 60% 30.13 in 10.0 mi SW 3.5 mph - N/A   Clear
11:54 AM 79.0 °F - 61.0 °F 54% 30.13 in 10.0 mi Variable 3.5 mph - N/A   Clear
12:54 PM 81.0 °F 81.7 °F 61.0 °F 50% 30.12 in 10.0 mi WSW 4.6 mph - N/A   Clear
1:54 PM 80.6 °F 80.8 °F 57.2 °F 45% 30.13 in 10.0 mi West 3.5 mph - N/A   Scattered Clouds
2:54 PM 82.9 °F 83.2 °F 60.1 °F 46% 30.10 in 10.0 mi South 8.1 mph - N/A   Mostly Cloudy
3:29 PM 82.4 °F 82.9 °F 60.8 °F 48% 30.11 in 10.0 mi SSE 3.5 mph - N/A Thunderstorm Mostly Cloudy
3:52 PM 82.4 °F 82.9 °F 60.8 °F 48% 30.10 in 10.0 mi SE 5.8 mph - N/A   Clear
3:54 PM 82.9 °F 83.3 °F 61.0 °F 47% 30.09 in 10.0 mi South 6.9 mph - N/A   Clear
4:49 PM 80.6 °F 81.1 °F 59.0 °F 48% 30.10 in 10.0 mi SSE 8.1 mph - N/A Thunderstorm Clear
4:54 PM 80.1 °F 80.6 °F 57.9 °F 47% 30.08 in 10.0 mi Variable 4.6 mph - N/A Thunderstorm Clear
5:17 PM 81.0 °F 80.8 °F 55.9 °F 42% 30.09 in 10.0 mi ESE 5.8 mph - N/A   Clear
5:54 PM 80.6 °F 80.5 °F 55.4 °F 42% 30.09 in 10.0 mi East 3.5 mph - N/A   Clear
6:54 PM 80.1 °F 80.6 °F 57.9 °F 47% 30.07 in 10.0 mi Calm Calm - N/A   Clear
7:54 PM 77.0 °F - 59.0 °F 54% 30.07 in 10.0 mi East 3.5 mph - N/A   Clear
8:54 PM 73.9 °F - 63.0 °F 68% 30.08 in 8.0 mi North 6.9 mph - N/A   Clear
9:54 PM 72.0 °F - 62.1 °F 71% 30.10 in 9.0 mi Calm Calm - N/A   Mostly Cloudy
10:54 PM 72.0 °F - 62.1 °F 71% 30.09 in 9.0 mi Calm Calm - N/A   Mostly Cloudy
11:54 PM 69.1 °F - 62.1 °F 78% 30.09 in 8.0 mi Calm Calm - N/A   Clear